www.pogodaiklimat.ru

Погода и климат >> Архив погоды >> Индия >> Kozhikode


ПОГОДА в Kozhikode

  • Прогноз погоды в Kozhikode
  • Монитор погоды в Kozhikode
  • Климат города

АРХИВ ПОГОДЫ в Kozhikode

Время (UTC), дата Ветер
(напр.,м/с)
 
Видим.   Явления Облачность Т
(С)
Тd
(С)
f
(%)
Тe
(С)
Тes
(С)
Комфортность P
(гПа)
Po
(гПа)
Тmin
(С)
Tmax
(С)
R
(мм)
R24
(мм)
S
(см)
15 19.06 З 2 4000 м 5/4 600 м
[Sc diur, vesp Ci sp]
+28.8 +26.0 85 +43 +43 опасность
перегрева
1008.3 1008.0
18 19.06 З 1 4000 м зарница 8/5 600 м
[Cb calv Ac trans Ci sp]
+28.8 +26.3 86 +44 +44 опасность
перегрева
1009.0 1009.0
21 19.06 штиль 0 4000 м гроза, ливневой дождь 10/5 300 м
[Cb cap Ac trans Ci ing]
+27.0 +25.6 92 +40 +40 очень
душно
1007.9 1008.0 0.6
00 20.06 В 1 4000 м {гроза, дождь} 9/3 300 м
[Cu Sc Ac trans Ci sp]
+26.0 +25.1 95 +37 +37 очень
душно
1007.7 1008.0 0.6
03 20.06 штиль 0 10 км {дождь, морось} 10/5 600 м
[Sc diur, vesp Ac As]
+27.0 +25.8 93 +40 +41 очень
душно
1009.7 1010.0 +25.6 +34.6 4
06 20.06 штиль 0 4000 м дождь {гроза} 10/5 600 м
[Cu Sc Ac As]
+27.0 +26.2 95 +41 +45 опасность
перегрева
1009.8 1010.0 12
09 20.06 штиль 0 10 км в посл. час дождь 9/5 600 м
[Sc diur, vesp Ac As]
+27.4 +26.3 94 +42 +47 опасность
перегрева
1008.0 1008.0 15
12 20.06 штиль 0 10 км 8/4 600 м
[Sc diur, vesp Ac trans]
+28.4 +26.2 88 +43 +44 опасность
перегрева
1007.8 1008.0 +31.8 15
15 20.06 штиль 0 4000 м слабый дождь 10/5 600 м
[Cu Sc Ac As]
+26.2 +24.3 89 +36 +36 очень
душно
1009.1 1009.0 19
18 20.06 штиль 0 4000 м {дождь} 4/3 300 м
[Sc diur, vesp Ac trans]
+26.0 +25.4 97 +38 +38 очень
душно
1009.5 1010.0 19
21 20.06 штиль 0 4000 м {дождь} 8/4 600 м
[Sc diur, vesp Ac trans]
+25.6 +25.0 96 +36 +36 очень
душно
1008.2 1008.0 20
00 21.06 штиль 0 4000 м в посл. час дождь 10/5 600 м
[Cu Sc Ac As]
+25.0 +24.1 95 +34 +34 очень
душно
1008.2 1008.0 22
03 21.06 штиль 0 10 км {дождь} 10/5 600 м
[Cu Sc Ac As]
+25.6 +27.4 100 +37 +39 очень
душно
1009.9 1010.0 +24.0 +31.8 22
06 21.06 штиль 0 10 км 8/4 600 м
[Sc diur, vesp Ac trans]
+28.8 +25.7 83 +43 +52 опасность
перегрева
1010.7 1011.0
09 21.06 штиль 0 10 км в посл. час дождь 10/4 600 м
[Sc diur, vesp Ac As Ci sp]
+28.8 +26.3 86 +44 +50 опасность
перегрева
1008.9 1009.0 3
12 21.06 штиль 0 10 км в посл. час дождь 10/5 600 м
[Sc diur, vesp Ac As]
+27.4 +26.3 94 +42 +42 опасность
перегрева
1008.7 1009.0 +30.6 5
15 21.06 штиль 0 4000 м {дождь} 10/4 600 м
[Sc diur, vesp Ac As Ci sp]
+25.0 +20.5 76 +31 +31 очень
душно
1009.7 1010.0 5
18 21.06 штиль 0 4000 м {дождь} 10/4 600 м
[Sc diur, vesp Ac As Ci sp]
+25.0 +21.5 81 +32 +32 очень
душно
1009.7 1010.0 5
21 21.06 штиль 0 4000 м 10/3 600 м
[Sc diur, vesp Ac trans Ci sp]
+25.0 +21.5 81 +32 +32 очень
душно
1009.7 1010.0 5
00 22.06 штиль 0 4000 м 8/3 600 м
[Sc diur, vesp Ac trans Ci sp]
+24.6 +21.5 83 +31 +31 очень
душно
1009.6 1010.0 5
03 22.06 штиль 0 10 км в посл. час дождь 10/4 600 м
[Sc diur, vesp Ac trans Ci sp]
+26.0 +24.0 100 +24 +27 комфорт 1010.5 1011.0 +24.7 +30.6 8
06 22.06 штиль 0 10 км {дождь} 5/4 600 м
[Cb calv Ac trans]
+30.0 +26.4 81 +46 +60 опасность
перегрева
1010.8 1011.0
09 22.06 З 1 10 км 5/3 600 м
[Sc diur, vesp Ac trans Ci fib]
+32.4 +26.3 70 +49 +60 опасность
перегрева
1009.3 1009.0
12 22.06 З 2 10 км в посл. час дождь 9/4 300 м
[Cu Sc Ac trans Ci sp]
+29.2 +26.2 100 +27 +27 жарко 1008.5 1009.0 +33.2 0.8
15 22.06 СЗ 2 2000 м слабый дождь 10/4 300 м
[Cu Sc Ac As]
+28.0 +26.0 89 +42 +42 опасность
перегрева
1010.2 1010.0 1
18 22.06 В 1 4000 м {дождь} 6/3 600 м
[Cu Sc Ac trans Ci fib]
+26.8 +25.7 94 +40 +40 очень
душно
1011.0 1011.0 1
21 22.06 штиль 0 4000 м в посл. час дождь 10/4 300 м
[Cu Sc Ac As]
+26.4 +25.5 95 +39 +39 очень
душно
1009.2 1009.0 2
00 23.06 штиль 0 4000 м {дождь} 9/4 300 м
[Cu Sc Ac As]
+24.4 +24.1 98 +34 +34 очень
душно
1009.0 1009.0 16
03 23.06 З 1 10 км в посл. час дождь {морось} 10/5 300 м
[Cu Sc Ac As]
+24.8 -0.2 91 +23 +24 комфорт 1010.8 1011.0 +23.9 +33.2 20
06 23.06 З 1 10 км {дождь, морось} 5/3 600 м
[Cb calv Ac trans Ci fib]
+29.8 +26.7 83 +46 +60 опасность
перегрева
1010.2 1010.0 5
09 23.06 штиль 0 10 км 9/4 600 м
[Cu Sc Ac As Ci sp]
+29.4 +26.0 82 +44 +52 опасность
перегрева
1008.7 1009.0 0.5
12 23.06 штиль 0 4000 м в посл. час дождь 10/6 300 м
[Cu Sc Ac As Ci sp]
+27.8 +25.0 100 +25 +26 комфорт 1008.2 1008.0 +32.6 2
15 23.06 В 2 4000 м слабый дождь 10/5 300 м
[Cu Sc Ac trans Cs]
+25.2 +24.3 95 +35 +35 очень
душно
1009.7 1010.0 7
18 23.06 В 2 4000 м зарница {дождь} 8/4 600 м
[Cb calv Ac trans Ci sp]
+24.8 +24.2 96 +34 +34 очень
душно
1009.7 1010.0 6
21 23.06 В 2 4000 м слабый дождь 10/5 300 м
[Cu Sc Ac As]
+24.0 +23.7 98 +33 +33 очень
душно
1008.1 1008.0 42
00 24.06 штиль 0 4000 м слабый дождь 10/5 300 м
[Cu Sc Ac As]
+23.2 +22.9 98 +32 +32 очень
душно
1007.9 1008.0 43
03 24.06 штиль 0 4000 м слабый дождь 10/6 300 м
[Cu Sc Ac As]
+24.8 +24.6 100 +23 +24 комфорт 1008.4 1008.0 +23.1 +32.6 46
06 24.06 ЮЗ 1 10 км {дождь} 9/4 600 м
[Cu Sc Ac As Ci sp]
+27.8 +26.4 92 +42 +51 опасность
перегрева
1009.1 1009.0 0.0
09 24.06 Ю 3 10 км 9/4 600 м
[Cb cap Ac trans Ci ing]
+29.6 +25.7 80 +44 +49 опасность
перегрева
1007.1 1007.0 0.0
12 24.06 штиль 0 4000 м слабая морось 10/5 300 м
[Cu Sc Ac As]
+26.8 +24.3 100 +25 +25 комфорт 1006.5 1007.0 +30.2 0.2
15 24.06 З 2 4000 м слабый дождь {морось} 10/5 300 м
[Cu Sc Ac As]
+23.6 +23.3 98 +32 +32 очень
душно
1009.7 1010.0 25
18 24.06 штиль 0 4000 м {дождь, морось} 8/3 300 м
[Cu Sc Ac trans Ci sp]
+23.8 +23.5 98 +32 +32 очень
душно
1008.2 1008.0 25
21 24.06 штиль 0 4000 м слабый дождь 10/5 300 м
[Cu Sc Ac As]
+24.0 +23.7 98 +33 +33 очень
душно
1006.7 1007.0 27
00 25.06 штиль 0 4000 м слабый дождь {морось} 10/4 300 м
[Cu Sc Ac As]
+23.8 +23.5 98 +32 +32 очень
душно
1006.1 1006.0 29
03 25.06 В 1 4000 м слабый дождь 10/5 300 м
[Cu Sc Ac As]
+24.0 +23.9 100 +23 +24 комфорт 1007.5 1008.0 +23.4 +30.2 38
06 25.06 штиль 0 4000 м дождь {метель} 10/5 600 м
[Cu Sc Ac As]
+24.8 +24.5 98 +35 +39 очень
душно
1008.0 1008.0 21
09 25.06 штиль 0 4000 м слабый дождь 10/5 300 м
[Sc diur, vesp Ac As]
+24.8 +24.8 100 +35 +38 очень
душно
1006.5 1007.0 35
12 25.06 штиль 0 10 км {дождь} 10/5 600 м
[Sc diur, vesp Ac As]
+24.8 +24.5 98 +35 +35 очень
душно
1005.5 1006.0 +26.2 36
15 25.06 штиль 0 4000 м 10/5 600 м
[Sc diur, vesp Ac As]
+24.8 +24.5 98 +35 +35 очень
душно
1007.5 1008.0 36
18 25.06 штиль 0 4000 м 10/5 600 м
[Sc diur, vesp Ac As]
+24.8 +24.5 98 +35 +35 очень
душно
1005.5 1006.0 36
21 25.06 штиль 0 4000 м 10/5 600 м
[Sc diur, vesp Ac As]
+24.8 +24.5 98 +35 +35 очень
душно
1008.6 1009.0 38
00 26.06 штиль 0 4000 м {дождь} 10/5 600 м
[Sc diur, vesp Ac As]
+24.8 +24.5 98 +35 +35 очень
душно
1006.1 1006.0 48
03 26.06 штиль 0 4000 м {дождь} 10/5 300 м
[Sc diur, vesp Ac As]
1009.1 1009.0 +24.0 +26.2 56
06 26.06 штиль 0 4000 м {дождь} 10/5 300 м
[Sc diur, vesp Ac As]
+25.0 +25.0 100 +36 +40 очень
душно
1007.6 1008.0
09 26.06 штиль 0 4000 м {дождь} 10/5 300 м
[Sc diur, vesp Ac As]
+28.0 +28.0 100 +46 +50 опасность
перегрева
1005.6 1006.0 14

 

Местоположение метеостанции Kozhikode (Kerala, Индия): широта 11.25 долгота 75.78 высота над уровнем моря 5 м.

В архиве по умолчанию представлена погода в Kozhikode за последнюю неделю. Архивные данные за месяц целиком и за предыдущие месяцы, начиная с января 2011 года, Вы можете получить, выбрав интересующий диапазон дат из раскрывающегося списка и нажав кнопку "Ввод!".

Внимание! Время в таблицах - всемирное. Для получения местного времени необходимо прибавить поправку, которая в Kozhikode равна 5.5 ч.

Смотрите также архив погоды в соседних городах и на ближайших метеорологических станциях:

Погода в Karipur (Kerala, Индия) (23 км)
Погода в Cannanore (Kerala, Индия) (81 км)
Погода в Thrissur (Kerala, Индия) (94 км)
Погода в Udhagamandalam (Tamil Nadu, Индия) (105 км)
Погода в Palakkad (Kerala, Индия) (109 км)
Погода в Coonoor (Tamil Nadu, Индия) (112 км)
Погода в Madikeri (Karnataka, Индия) (130 км)
Погода в Kochi (Kerala, Индия) (140 км)
Погода в Coimbatore (Tamil Nadu, Индия) (141 км)
Погода в Chamarajnagar (Karnataka, Индия) (146 км)

Пояснения к столбцам:

Ветер - указаны скорость ветра в м/с - средняя за 10 мин, порывы в срок и между сроками (в фигурных скобках) и направление, откуда дует ветер: С - северный, СВ - северо-восточный, В - восточный, ЮВ - юго-восточный, Ю - южный, ЮЗ - юго-западный, З - западный, СЗ - северо-западный.
Видимость - горизонтальная дальность видимости в метрах или километрах. При видимости от 1 до 10 км при отсутствии осадков обычно наблюдается дымка, при ухудшении видимости до 1 км и менее - туман. В сухую погоду видимость может ухудшаться дымом, пылью или мглою.
Явления - указаны атмосферные явления, наблюдавшиеся в срок или в последний час перед сроком; фигурными скобками обозначены явления, наблюдавшиеся между сроками (за 1-3 часа до срока); квадратными скобками обозначены град или гололедные отложения с указанием их диаметра в мм.
Облачность - указаны через наклонную черту общая и нижняя облачность в баллах и высота нижней границы облаков в метрах; квадратными скобками обозначены формы облаков: Ci - перистые, Cs - перисто-слоистые, Cc - перисто-кучевые, Ac - высококучевые, As - высокослоистые, Sc - слоисто-кучевые, Ns - слоисто-дождевые, Cu - кучевые, Cb - кучево-дождевые. Подробнее классификацию облаков см. в Атласе облаков (PDF).
T - Температура воздуха - температура, измеренная на высоте 2 м над землей.
Td - Температура точки росы - температура, при понижении до которой содержащийся в воздухе водяной пар достигнет насыщения.
f - Относительная влажность воздуха - влажноcть воздуха, измеренная на высоте 2 м над землей.
Te - Эффективная температура - температура, которую ощущает одетый по сезону человек в тени. Характеристика душности погоды. При расчете учитывается влияние влажности воздуха и скорости ветра на теплоощущения человека.
Tes - Эффективная температура на солнце - температура, которую ощущает человек, с поправкой на солнечный нагрев. Характеристика знойности погоды. Зависит от высоты солнца над горизонтом, облачности и скорости ветра. Ночью, в пасмурную погоду, а также при ветре 12 м/с и более поправка равна нулю.
P - Атмосферное давление - приведенное к уровню моря атмосферное давление.
Po - Атмосферное давление - измеренное на уровне метеостанции атмосферное давление.
Tmin - Минимальная температура - минимум температуры воздуха на высоте 2 м над землей.
Tmax - Максимальная температура - максимум температуры воздуха на высоте 2 м над землей.
R - Количество осадков - Количество выпавших осадков за период времени, мм. При наведении курсора мыши на число - период времени, за который выпало указанное количество осадков.
R24 - Количество осадков - Количество выпавших осадков за 24 часа, мм.
S - Снежный покров - Высота снежного покрова, см. При наведении курсора мыши на число - состояние снежного покрова и степень покрытия местности в баллах.